This demonstration page uses our WeatherBlox Daily Observations layout. Learn more.

Left ArrowRight Arrow

44.8408, -93.29828

Hourly Observations for September 6, 2022

Temp ( °F °C ) Dew Point ( °F °C ) Humidity (%) Winds ( mph kmh ) Pressure ( in mb ) Visibility ( mi km ) Precip ( " mm )
12:53 am 00:53 Clear 63 17.2 55 12.8 75 75 SE 8 13 30.08 1019 10 16 0.00 0.00
1:53 am 01:53 Clear 62 16.7 54 12.2 75 75 SSE 6 9 30.09 1019 10 16 0.00 0.00
2:53 am 02:53 Cloudy 62 16.7 55 12.8 78 78 SSE 5 7 30.08 1019 10 16 0.00 0.00
3:53 am 03:53 Partly Cloudy 62 16.7 56 13.3 80 80 SE 5 7 30.08 1019 10 16 0.00 0.00
4:53 am 04:53 Cloudy 63 17.2 56 13.3 78 78 SE 7 11 30.08 1019 10 16 0.00 0.00
5:53 am 05:53 Cloudy 62 16.7 56 13.3 80 80 SSE 5 7 30.09 1019 10 16 0.00 0.00
6:53 am 06:53 Mostly Cloudy 61 16.1 56 13.3 83 83 SE 6 9 30.10 1019 10 16 0.00 0.00
7:53 am 07:53 Mostly Cloudy 62 16.7 56 13.3 80 80 SE 7 11 30.12 1020 10 16 0.00 0.00
8:53 am 08:53 Mostly Sunny 65 18.3 59 15 81 81 SE 6 9 30.11 1020 10 16 0.00 0.00
9:53 am 09:53 Mostly Sunny 69 20.6 61 16.1 75 75 S 8 13 30.11 1020 10 16 0.00 0.00
10:53 am 10:53 Mostly Sunny 73 22.8 63 17.2 71 71 SE 8 13 30.12 1020 10 16 0.00 0.00
11:53 am 11:53 Mostly Sunny 76 24.4 64 17.8 67 67 SE 7 11 30.12 1020 10 16 0.00 0.00
12:53 pm 12:53 Mostly Sunny 79 26.1 64 17.8 60 60 SE 9 15 30.10 1019 10 16 0.00 0.00
1:53 pm 13:53 Partly Cloudy 81 27.2 63 17.2 54 54 SSE 6 9 30.10 1019 10 16 0.00 0.00
2:53 pm 14:53 Partly Cloudy 82 27.8 63 17.2 53 53 SE 9 15 30.09 1019 10 16 0.00 0.00
3:53 pm 15:53 Mostly Cloudy 83 28.3 64 17.8 53 53 SSE 8 13 30.08 1019 10 16 0.00 0.00
4:53 pm 16:53 Partly Cloudy 82 27.8 62 16.7 51 51 S 9 15 30.08 1019 10 16 0.00 0.00
5:53 pm 17:53 Partly Cloudy 81 27.2 62 16.7 53 53 SW 7 11 30.09 1019 10 16 0.00 0.00
6:53 pm 18:53 Partly Cloudy 80 26.7 64 17.8 58 58 SW 7 11 30.09 1019 10 16 0.00 0.00
7:53 pm 19:53 Partly Cloudy 79 26.1 65 18.3 62 62 SW 7 11 30.11 1020 10 16 0.00 0.00
8:53 pm 20:53 Partly Cloudy 78 25.6 65 18.3 64 64 SSW 5 7 30.12 1020 10 16 0.00 0.00
9:53 pm 21:53 Clear 76 24.4 65 18.3 69 69 SSW 5 7 30.13 1020 10 16 0.00 0.00
10:53 pm 22:53 Mostly Clear 74 23.3 65 18.3 74 74 WSW 3 6 30.14 1021 10 16 0.00 0.00
11:53 pm 23:53 Cloudy 74 23.3 65 18.3 74 74 SW 3 6 30.14 1021 10 16 0.00 0.00

Powered by AerisWeather